Location: Gleizolles
(44.4833°N, 6.7667°E)
Time: 00:19:33
(UTC+00:00)

Vanguard 2 Rocket - Pass Details

Date: 16 June 2024
Orbit: 555 x 3302 km, 32.9° (Epoch: 24 July)

Event Time Altitude Azimuth Distance (km) Brightness Sun altitude
Rises 09:03:39 0° 273° (W) 6,154 10.8 52.9°
Reaches altitude 10° 09:09:11 10° 263° (W) 4,633 10.3 53.8°
Maximum altitude 09:17:58 24° 216° (SW) 2,723 9.6 55.2°
Drops below altitude 10° 09:23:54 10° 164° (SSE) 3,005 10.1 56.1°
Sets 09:26:38 0° 150° (SSE) 3,647 10.4 56.6°
